Location: Laupheim
(48.2333°N, 9.8833°E)
Time: 00:56:03
(UTC+02:00)

ISS - Visible Passes

Search period start: 19 October 2018 00:00
Search period end: 28 October 2018 23:00
Orbit: 403 x 408 km, 51.6° (Epoch: 19 October)

Date Brightness Start Highest point End Pass type
(mag) Time Alt. Az. Time Alt. Az. Time Alt. Az.
26 Oct -0.9 07:06:07 10° S 07:08:22 17° SE 07:10:36 10° E visible
27 Oct -0.4 06:16:18 10° SE 06:16:35 10° SE 06:16:52 10° SE visible
28 Oct -2.2 05:57:32 10° SSW 06:00:31 33° SE 06:03:31 10° E visible
